Zurück zum Katalog

STARLINK-34558

AktivKommunikationVLEO
NORAD 64721·PAYLOAD·🇺🇸 United States

Gestartet Jun 28, 2025 von Vandenberg Space Force Base

Loading…

Nächste Überflüge (nächste 24 Stunden)

TLE

AktuellSource: CelesTrak SupGP

Epoche: Sep 14, 2026, 20:50 UTC

1 64721C 25142AB  26257.86854167  .00009418  00000+0  32755-3 0  2574
2 64721  70.0012 195.8513 0003223 267.1816 263.7178 15.29581644    15

Verfolge STARLINK-34558 in Echtzeit mit AllMySat

Download on the App Store